SQ2CET-13 Weather Reports


time (UTC)temp
C
wind
direction
speed
KPH
gust
KPH
rain 1hr
cm
rain 24hr
cm
rain mn
cm
humidity
%
barometer
mb
20260905220055 13 239 14.5 24.1 0.00 1.80 0.64 84 1012.1
20260905215132 13 238 11.3 20.9 0.00 1.80 0.64 85 1012.1
20260905214023 13 239 9.7 22.5 0.00 1.80 0.64 86 1012.1
20260905213047 13 236 11.3 24.1 0.00 1.80 0.64 86 1012.0
20260905212111 13 237 9.7 19.3 0.00 1.80 0.64 86 1012.0
20260905211031 13 244 9.7 20.9 0.00 1.80 0.64 86 1011.9
20260905210114 13 235 12.9 24.1 0.00 1.80 0.64 85 1011.9
20260905205118 13 232 12.9 20.9 0.00 1.80 0.64 85 1012.0
20260905204039 13 241 9.7 22.5 0.00 1.80 0.64 85 1011.9
20260905203104 13 241 12.9 20.9 0.00 1.80 0.64 86 1011.9
20260905202119 13 236 9.7 24.1 0.00 1.80 0.64 86 1011.9
20260905201048 13 246 9.7 19.3 0.00 1.80 0.64 86 1012.0
20260905200104 13 239 9.7 17.7 0.00 1.80 0.64 86 1011.9
20260905195024 13 241 9.7 19.3 0.00 1.80 0.64 86 1011.9
20260905194108 13 232 12.9 20.9 0.00 1.80 0.64 86 1012.0
20260905193111 13 235 9.7 20.9 0.00 1.80 0.64 85 1012.0
20260905192032 13 244 11.3 22.5 0.00 1.80 0.64 85 1011.9
20260905191055 13 236 12.9 20.9 0.00 1.80 0.64 85 1011.9
20260905190120 13 252 9.7 22.5 0.00 1.80 0.64 85 1011.9
20260905185120 13 236 9.7 19.3 0.03 1.80 0.64 84 1011.8
20260905184103 13 236 14.5 24.1 0.03 1.83 0.64 83 1011.8
20260905183119 13 235 14.5 25.7 0.03 1.83 0.64 84 1011.8
20260905182031 13 241 9.7 20.9 0.03 1.83 0.64 84 1011.7
20260905181105 13 246 9.7 25.7 0.03 1.83 0.64 84 1011.5
20260905180108 13 243 11.3 22.5 0.03 1.83 0.64 82 1011.4
20260905175024 13 245 12.9 22.5 0.00 1.80 0.61 81 1011.3
20260905174047 13 243 11.3 22.5 0.00 1.80 0.61 80 1011.3
20260905173111 13 232 14.5 24.1 0.00 1.80 0.61 79 1011.3
20260905172051 13 233 14.5 29.0 0.00 1.80 0.61 78 1011.2
20260905171056 13 240 11.3 24.1 0.00 1.80 0.61 78 1011.0
20260905170112 14 245 11.3 25.7 0.00 1.83 0.61 78 1011.2
20260905165031 14 234 14.5 24.1 0.00 1.83 0.61 77 1010.9
20260905164047 14 237 11.3 25.7 0.00 1.83 0.61 76 1010.8
20260905163103 15 237 14.5 27.4 0.00 1.83 0.61 75 1010.6
20260905162120 15 241 11.3 25.7 0.00 1.83 0.61 75 1010.4
20260905161040 15 244 12.9 29.0 0.00 1.83 0.61 74 1010.4
20260905155131 15 237 16.1 32.2 0.00 1.88 0.61 73 1010.2
20260905154024 15 241 17.7 29.0 0.00 1.93 0.61 73 1010.3
20260905153047 15 241 12.9 27.4 0.00 1.93 0.61 72 1010.4
20260905152055 16 233 16.1 33.8 0.00 1.96 0.61 71 1010.2
20260905151119 16 245 12.9 30.6 0.00 1.98 0.61 70 1010.2
20260905150059 16 240 17.7 33.8 0.00 2.06 0.61 72 1010.3
20260905145104 16 232 14.5 33.8 0.00 2.11 0.61 71 1010.4
20260905144121 16 234 19.3 32.2 0.00 2.16 0.61 70 1010.6
20260905143040 16 237 14.5 32.2 0.00 2.18 0.61 70 1010.3
20260905142104 15 236 25.7 33.8 0.00 2.21 0.61 70 1010.4
20260905141024 15 240 14.5 29.0 0.00 2.26 0.61 70 1010.3
20260905140048 15 244 14.5 37.0 0.00 2.34 0.61 69 1010.3
20260905135125 15 240 19.3 32.2 0.00 2.36 0.61 68 1010.3
20260905134051 14 243 16.1 30.6 0.00 2.39 0.61 72 1010.2
20260905133057 14 235 16.1 32.2 0.00 2.41 0.61 74 1010.4
20260905132113 15 232 19.3 33.8 0.00 2.41 0.61 74 1010.2
20260905131044 15 238 17.7 32.2 0.00 2.41 0.61 73 1010.2
20260905130110 15 231 24.1 38.6 0.00 2.41 0.61 74 1010.2
20260905125105 16 234 24.1 41.8 0.00 2.41 0.61 71 1010.1
20260905124119 15 238 20.9 40.2 0.00 2.41 0.61 75 1010.0
20260905123056 16 240 20.9 40.2 0.00 2.41 0.61 73 1009.9
20260905122054 15 250 12.9 32.2 0.00 2.41 0.61 81 1009.9
20260905121105 15 242 14.5 30.6 0.00 2.41 0.61 83 1009.8
20260905120023 15 238 17.7 32.2 0.00 2.41 0.58 81 1009.7
20260905115047 15 239 14.5 38.6 0.00 2.41 0.58 78 1009.6
20260905114055 16 235 22.5 38.6 0.00 2.41 0.58 74 1009.5
20260905113119 17 231 17.7 37.0 0.00 2.41 0.58 72 1009.4
20260905112039 16 232 16.1 41.8 0.00 2.41 0.58 76 1009.5
20260905111056 16 236 14.5 35.4 0.00 2.41 0.58 78 1009.5
20260905110111 15 241 19.3 33.8 0.00 2.41 0.58 80 1009.5
20260905105024 15 241 25.7 45.1 0.00 2.41 0.58 79 1009.3
20260905104049 15 239 20.9 51.5 0.00 2.41 0.58 80 1009.1
20260905103132 15 236 16.1 35.4 0.00 2.41 0.58 80 1009.0
20260905102030 15 244 14.5 32.2 0.00 2.41 0.58 82 1008.8
20260905101109 15 242 16.1 33.8 0.00 2.41 0.58 82 1008.8
20260905100111 13 247 12.9 24.1 0.00 2.41 0.58 83 1008.7
20260905095035 14 242 16.1 35.4 0.05 2.41 0.58 82 1008.7
20260905094121 15 242 19.3 51.5 0.05 2.41 0.58 82 1008.6
20260905093121 15 246 16.1 27.4 0.05 2.39 0.58 81 1008.4
20260905092031 15 240 17.7 37.0 0.08 2.39 0.58 80 1008.4
20260905091055 15 250 12.9 29.0 0.08 2.41 0.58 82 1008.2
20260905090133 14 235 16.1 33.8 0.08 2.46 0.58 83 1008.2
20260905085030 16 249 14.5 27.4 0.03 2.44 0.53 73 1007.8
20260905084055 16 242 17.7 32.2 0.03 2.41 0.53 73 1007.7
20260905083120 15 262 12.9 24.1 0.03 2.41 0.53 77 1007.6
20260905082038 16 254 14.5 22.5 0.00 2.39 0.51 70 1007.5
20260905081147 15 238 16.1 38.6 0.00 2.39 0.51 72 1007.5
20260905080112 15 243 17.7 37.0 0.00 2.39 0.51 74 1007.4
20260905075031 15 248 17.7 37.0 0.00 2.39 0.51 75 1007.3
20260905074055 15 255 14.5 25.7 0.00 2.39 0.51 76 1007.2
20260905073118 15 235 20.9 49.9 0.00 2.39 0.51 77 1006.9
20260905072100 15 240 12.9 32.2 0.00 2.39 0.51 82 1006.7
20260905071103 15 240 16.1 35.4 0.00 2.39 0.51 83 1006.7
20260905070023 15 247 14.5 29.0 0.00 2.39 0.51 84 1006.4
20260905065046 14 240 12.9 29.0 0.00 2.39 0.51 85 1006.2
20260905064111 14 231 17.7 35.4 0.03 2.39 0.51 86 1006.2
20260905063030 14 238 17.7 29.0 0.05 2.39 0.51 86 1006.2
20260905062055 13 244 14.5 32.2 0.15 2.39 0.51 87 1006.0
20260905061119 13 239 16.1 27.4 0.25 2.39 0.51 88 1006.1
20260905060038 13 238 19.3 32.2 0.28 2.41 0.51 89 1005.8
20260905055056 13 238 11.3 41.8 0.28 2.39 0.51 89 1005.7
20260905054121 13 237 16.1 24.1 0.25 2.39 0.48 91 1005.6
20260905053031 13 258 4.8 16.1 0.23 2.36 0.46 90 1005.5
20260905052054 13 243 12.9 27.4 0.13 2.26 0.36 89 1005.5
20260905051121 13 233 17.7 27.4 0.20 2.16 0.25 89 1005.2
20260905050031 13 242 14.5 30.6 0.23 2.13 0.23 89 1005.1
20260905045049 13 231 19.3 30.6 0.23 2.13 0.23 89 1005.1
20260905044111 13 232 14.5 32.2 0.23 2.13 0.23 89 1004.9
20260905043120 13 250 14.5 27.4 0.23 2.18 0.23 90 1004.9
20260905042039 13 240 12.9 40.2 0.23 2.36 0.23 90 1004.9
20260905041103 13 238 12.9 25.7 0.03 2.16 0.03 88 1004.8
20260905040025 13 245 14.5 30.6 0.00 2.13 0.00 86 1004.8
20260905035047 13 235 22.5 40.2 0.00 2.13 0.00 87 1004.6
20260905034114 13 233 20.9 30.6 0.00 2.13 0.00 85 1004.4
20260905033053 13 240 16.1 29.0 0.00 2.13 0.00 86 1004.5
20260905032056 13 237 11.3 20.9 0.00 2.13 0.00 86 1004.4
20260905031112 13 255 9.7 22.5 0.00 2.13 0.00 85 1004.2
20260905030031 13 244 11.3 32.2 0.00 2.13 0.00 81 1004.1
20260905025056 13 234 14.5 27.4 0.00 2.13 0.00 79 1004.1
20260905024120 13 248 14.5 24.1 0.00 2.13 0.00 79 1004.2
20260905023035 13 242 19.3 29.0 0.00 2.13 0.00 80 1004.2
20260905022056 13 250 16.1 32.2 0.00 2.13 0.00 80 1003.9
20260905021140 14 245 14.5 32.2 0.00 2.13 0.00 80 1003.8
20260905020100 14 255 16.1 33.8 0.00 2.13 0.00 82 1003.7
20260905015104 14 246 16.1 32.2 0.00 2.13 0.00 83 1003.6
20260905014027 14 243 12.9 40.2 0.00 2.13 0.00 84 1003.6
20260905013047 15 241 20.9 33.8 0.00 2.13 0.00 81 1003.5
20260905012127 15 244 19.3 37.0 0.00 2.13 0.00 83 1003.1
20260905011054 15 252 12.9 38.6 0.00 2.13 0.00 82 1003.0
20260905010056 15 253 14.5 35.4 0.00 2.13 0.00 84 1002.9
20260905005122 15 269 14.5 37.0 0.00 2.13 0.00 84 1002.8
20260905004101 15 243 20.9 45.1 0.00 2.13 0.00 84 1002.6
20260905003107 15 253 20.9 45.1 0.00 2.21 0.00 85 1002.6
20260905002022 15 240 20.9 38.6 0.03 2.21 0.00 85 1002.4
20260905001047 15 251 19.3 49.9 0.05 2.21 0.00 85 1002.2
20260905000111 15 234 16.1 33.8 0.33 2.21 0.00 87 1002.1
20260904235050 15 241 19.3 33.8 0.86 2.21 2.21 88 1001.8
20260904234054 15 247 14.5 38.6 1.02 2.21 2.21 89 1001.6
20260904233200 15 250 12.9 33.8 1.14 2.21 2.21 91 1001.5
20260904232039 15 254 12.9 24.1 1.14 2.18 2.18 91 1001.6
20260904231123 15 248 12.9 22.5 1.12 2.16 2.16 91 1001.4
20260904230043 15 268 8.0 14.5 0.84 1.88 1.88 91 1001.5
20260904225107 15 258 6.4 24.1 0.28 1.35 1.35 90 1001.5
20260904224111 15 235 11.3 20.9 0.15 1.19 1.19 90 1001.7
20260904223026 16 269 4.8 12.9 0.03 1.07 1.07 90 1001.7
20260904222048 16 251 8.0 16.1 0.00 1.04 1.04 89 1001.7
20260904221112 16 244 9.7 17.7 0.00 1.04 1.04 89 1001.6